Location: ActonStarParty
(42.4766°N, 71.4538°W)
Time: 08:07:17
(UTC-04:00)

Daily predictions for brighter satellites

Satellite Brightness Start Highest point End
(mag) Time Altitude Azimuth Time Altitude Azimuth Time Altitude Azimuth
Cosmos 2227 Rocket 3.8 20:59:39 10° SE 21:02:47 15° E 21:05:57 10° ENE
ATLAS 3B R/B 4.4 20:58:30 10° NNW 21:04:01 23° NNE 21:09:16 10° E
ERS-1 Rocket 3.2 21:02:14 10° S 21:07:15 74° WSW 21:12:19 10° NNW
ALOS 4.0 21:03:08 10° SSW 21:07:19 32° W 21:11:31 10° NNW
OAO 2 Rocket 4.4 21:04:28 10° SW 21:08:59 29° SSE 21:13:32 10° ESE
Cosmos 1300 3.4 21:07:23 10° N 21:10:59 37° ENE 21:14:35 10° SSE
Envisat 3.0 21:06:38 10° SSE 21:11:41 75° ENE 21:16:46 10° N
ERBS 3.9 21:10:32 10° SSE 21:12:57 18° SE 21:15:22 10° E
Tiangong 1 1.2 21:12:41 10° WSW 21:15:42 49° SSE 21:18:42 10° E
MetOp-A 4.5 21:10:34 10° SE 21:15:44 53° ENE 21:20:56 10° N
CZ-4 SHROUD 3.7 21:12:49 10° SSE 21:15:50 45° ENE 21:18:51 10° N
SL-16 R/B 4.3 21:14:08 10° NNE 21:17:01 14° NE 21:19:55 10° ENE
NOSS 3-1 (C) 3.4 21:12:00 10° SSW 21:17:47 66° ESE 21:24:11 10° NE
Nadezhda 2 Rocket 4.5 21:12:12 10° S 21:18:17 69° E 21:24:20 10° NNE
Cosmos 2333 Rocket 3.3 21:15:23 10° N 21:20:30 32° NE 21:25:32 10° ESE
Cosmos 2151 3.1 21:18:50 10° SSW 21:23:01 78° W 21:27:15 10° N
Lacrosse 4 Rocket 4.0 21:21:39 10° NNE 21:23:03 11° NE 21:24:27 10° ENE
Delta 2 Rocket 4.1 21:22:53 10° WSW 21:26:01 26° S 21:28:17 14° SE
SL-23 DEB 4.4 21:21:09 10° WNW 21:26:30 56° SW 21:29:29 14° SE
ARGOS 3.9 21:21:59 11° SE 21:26:46 39° ENE 21:31:45 10° N
Cosmos 2058 2.8 21:23:32 10° S 21:27:35 70° E 21:31:42 10° NNE
Cosmos 2112 Rocket 4.4 21:22:38 10° NNW 21:27:49 64° WSW 21:33:01 10° S
Cosmos 2297 Rocket 3.6 21:26:15 12° SE 21:29:21 18° E 21:33:01 10° ENE
Cosmos 1937 Rocket 4.0 21:25:12 10° SSE 21:30:00 38° ESE 21:34:47 10° NE
Cosmos 2219 Rocket 2.7 21:27:08 10° NNW 21:32:34 48° ENE 21:37:10 14° SE
COSMOS 2428 2.8 21:26:53 10° NNW 21:32:36 87° WSW 21:37:58 12° SSE
Cosmos 1455 4.1 21:30:36 10° NNE 21:33:06 16° ENE 21:35:05 12° ESE
Nimbus 7 Rocket 4.4 21:27:21 10° NNE 21:33:14 88° WNW 21:39:06 10° SSW
deb Chang Zheng 4 4.4 21:32:20 10° N 21:36:34 53° WNW 21:40:48 10° SSW
Cosmos 1726 2.2 21:37:20 10° N 21:41:07 68° E 21:44:08 15° SSE
Cosmos 2298 Rocket 4.0 21:35:56 10° SSW 21:41:15 79° ESE 21:46:35 10° NNE
Sich 1 3.1 21:40:44 10° S 21:45:07 66° E 21:49:29 10° NNE
PSLV R/B 3.7 21:44:56 12° S 21:47:39 54° W 21:50:39 10° NNW
Cosmos 1939 Rocket 4.4 21:45:08 10° SSW 21:48:39 32° W 21:52:10 10° NNW
CZ-4B R/B 3.6 21:44:23 10° NNE 21:49:39 66° ESE 21:54:46 10° S
Cosmos 2242 Rocket 3.7 21:46:41 10° N 21:51:09 65° E 21:54:27 18° SSE
Cosmos 1633 Rocket 3.0 21:47:10 10° S 21:51:31 73° E 21:55:53 10° NNE
Meteor 1-4 Rocket 2.6 21:50:47 10° N 21:54:32 71° E 21:56:51 21° SSE
Cosmos 1980 4.1 21:49:36 10° NNW 21:55:08 53° ENE 21:59:03 19° SE
SPOT 5 3.5 21:51:38 10° S 21:56:07 52° W 22:00:54 10° NNW
USA 245 1.9 21:59:33 33° S 22:00:27 83° WSW 22:02:43 10° NNW
Cosmos 2219 4.4 21:57:54 10° SW 22:03:26 46° WNW 22:08:58 10° NNE
Cosmos 292 Rocket 3.8 22:00:03 10° NNW 22:04:50 82° WSW 22:08:03 21° SSE
Cosmos 2237 Rocket 2.4 22:01:31 10° NNW 22:07:11 61° ENE 22:10:50 22° SE
Cosmos 1869 4.3 22:03:56 10° N 22:07:38 33° ENE 22:09:16 24° ESE
H-2A R/B 2.6 22:05:52 21° SE 22:09:13 48° ENE 22:14:26 10° N
Cosmos 2082 3.8 22:07:51 10° S 22:13:27 58° ESE 22:19:04 10° NNE
Cosmos 1271 Rocket 2.9 22:10:51 10° NNW 22:14:41 69° W 22:17:01 23° S
DELTA 2 R/B(2) 4.1 22:13:20 10° WSW 22:14:48 40° SSW 22:14:48 40° SSW
Cosmos 1898 Rocket 4.0 22:11:02 10° SSW 22:16:08 60° WNW 22:21:19 10° NNE
Cosmos 2360 Rocket 4.4 22:12:34 10° WNW 22:16:18 18° W 22:20:01 10° SW
DELTA 2 DEB (DPAF) 4.2 22:14:15 26° SSE 22:16:46 70° ENE 22:21:14 10° N
Landsat 7 3.9 22:14:43 25° SSE 22:17:26 67° ENE 22:22:10 10° N
Cosmos 220 Rocket 4.2 22:14:42 10° SSW 22:19:05 74° WNW 22:23:33 10° NNE
CZ-4C R/B 2.9 22:18:52 35° SSE 22:20:11 72° ENE 22:23:40 10° N
Iridium 2 3.6 22:19:28 24° S 22:21:41 88° W 22:25:34 10° N
SPOT 1/Viking Rocket 4.0 22:17:51 17° S 22:21:47 58° W 22:26:54 10° NNW
NOAA 11 4.3 22:18:01 20° S 22:21:55 75° WSW 22:27:24 10° NNW
Cosmos 1125 Rocket 4.3 22:20:15 26° SE 22:22:13 34° E 22:26:59 10° NE
NOSS 3-1 (A) 4.0 22:17:06 10° SW 22:22:58 62° NW 22:29:33 10° NNE
Cosmos 1626 2.2 22:21:47 34° SSE 22:23:11 58° E 22:26:54 10° NNE
Cosmos 1346 2.9 22:22:51 45° S 22:23:37 73° E 22:26:39 10° NNE
Cosmos 1703 3.6 22:23:38 16° SSW 22:26:35 62° W 22:30:29 10° N
YAOGAN 6 4.4 22:27:34 13° SSW 22:30:06 27° W 22:33:12 10° NW
OTV 4 2.8 22:29:08 10° SW 22:29:40 14° SW 22:29:40 14° SW
Cosmos 1241 Rocket 4.4 22:26:21 10° SSW 22:32:33 88° ESE 22:38:52 10° NNE
Terra 1.9 22:31:05 31° SSE 22:33:18 68° ENE 22:38:02 10° N
SL-08 RB Rocket 4.1 22:32:55 23° S 22:35:30 55° W 22:39:56 10° NNW
Nadezhda 1 Rocket 4.1 22:37:27 10° NNW 22:43:32 74° W 22:47:23 24° S
Spot 4 3.9 22:42:22 35° SE 22:44:22 68° ENE 22:49:13 10° N
ATLAS 2AS CENTAUR R/B 2.9 22:37:36 10° SSW 22:45:05 81° ESE 22:53:11 10° NE
Cosmos 1470 Rocket 4.0 22:42:22 20° SSW 22:45:10 58° W 22:49:27 10° N
Cosmos 2227 Rocket 2.3 22:40:28 10° SSW 22:46:06 75° WNW 22:51:49 10° NNE
Cosmos 1933 Rocket 4.0 22:43:15 21° SSW 22:46:11 61° W 22:50:36 10° N
ERBS 3.4 22:46:08 10° WSW 22:49:31 46° NW 22:52:54 10° NE
Cosmos 1703 Rocket 4.0 22:45:21 10° N 22:49:35 47° ENE 22:50:40 39° ESE
NOSS 0 Rocket 4.5 22:44:11 10° NW 22:50:05 49° WSW 22:53:27 25° S
SAR-Lupe-2 3.4 22:49:41 57° SSE 22:50:22 86° ENE 22:53:57 10° NNW
Cosmos 1900 4.3 22:46:08 10° NNW 22:51:08 75° ENE 22:52:57 39° SE
Tiangong 1 0.9 22:49:07 10° W 22:52:13 83° N 22:52:17 82° NNE
OAO 2 Rocket 3.9 22:48:23 10° WSW 22:53:16 37° S 22:53:39 37° S
ATLAS 3B R/B 2.7 22:48:52 10° NNW 22:55:57 78° NE 22:59:21 32° SE
SL-16 R/B 2.2 22:56:27 10° NNW 23:02:10 75° ENE 23:04:25 38° SE
Lacrosse 4 Rocket 1.5 22:58:07 10° NNW 23:02:34 74° ENE 23:03:42 49° SE
DMSP B5D2-2 4.1 22:58:40 10° N 23:03:54 78° WNW 23:06:47 27° SSW
Cosmos 2333 Rocket 3.1 22:59:30 10° NW 23:04:52 41° WSW 23:07:32 26° SSW
Cosmos 1709 Rocket 3.9 23:02:51 31° S 23:05:58 85° E 23:12:06 10° N
BREEZE-M TANK 3.9 22:48:24 10° WSW 23:07:14 86° NNW 23:11:19 10° ENE
Cosmos 2221 Rocket 3.6 23:03:44 10° N 23:08:18 73° E 23:09:20 52° SSE
Cosmos 1455 3.5 23:05:30 10° NNW 23:08:56 33° W 23:10:08 26° SW
Aureole 2 Rocket 3.9 23:07:00 10° N 23:09:44 25° ENE 23:09:44 25° ENE
USA 238 DEB 4.3 23:03:37 10° NNW 23:10:30 52° NE 23:14:41 24° ESE
USA 238 4.3 23:03:44 10° NNW 23:10:35 51° NE 23:14:48 24° ESE
Cosmos 2297 Rocket 2.5 23:07:58 14° SW 23:12:47 66° WNW 23:18:26 10° NNE
COS B Rocket 3.4 23:10:11 10° N 23:14:07 62° E 23:14:32 58° ESE
Cosmos 1933 3.3 23:10:43 10° N 23:14:48 79° W 23:15:26 61° SSW
COSMOS 2455 2.8 23:09:40 10° NNW 23:15:42 78° WSW 23:17:55 41° SSE
Cosmos 2219 Rocket 3.8 23:11:45 10° NW 23:16:10 24° WSW 23:18:54 17° SW
NOSS 2-3 (E) 3.9 23:18:12 45° S 23:19:38 68° ESE 23:25:13 10° NE
Cosmos 1340 Rocket 4.3 23:29:25 25° ENE 23:29:25 25° ENE 23:32:06 10° NE
Cosmos 1603 4.1 23:30:44 10° NNW 23:36:20 56° ENE 23:38:13 39° ESE
Cosmos 2181 Rocket 4.3 23:30:49 10° NNW 23:37:08 64° W 23:39:48 36° SSW
Cosmos 2251 Rocket 3.9 23:32:29 10° NNW 23:37:44 56° ENE 23:39:06 43° ESE
H-2A R/B 3.6 23:38:38 10° NNE 23:42:10 33° E 23:42:10 33° E
CZ-4C R/B 3.6 23:36:41 10° NNW 23:43:23 47° NE 23:48:29 20° ESE
SeaSat 1 2.6 23:43:30 47° ESE 23:44:43 64° ENE 23:49:36 10° NNW
Cosmos 2184 Rocket 3.9 23:43:46 46° SSE 23:45:40 74° E 23:51:51 10° NNE
NOSS 2-3 (C) 4.1 23:44:46 34° SW 23:47:00 75° NW 23:52:47 10° NNE
H-2A R/B 3.9 23:46:30 18° SW 23:48:50 23° W 23:53:07 10° NW
ASTEX 1 3.8 23:45:39 10° NNE 23:50:22 46° E 23:50:45 45° ESE
Cosmos 2237 Rocket 4.0 23:46:44 10° NW 23:50:42 20° W 23:52:39 17° SW
Meteor 1-26 Rocket 4.4 23:46:05 10° NNW 23:51:39 64° W 23:53:14 45° SSW
FALCON 9 R/B 3.3 23:36:23 10° W 23:52:40 44° SSW 23:54:02 40° S
Cosmos 1733 Rocket 3.5 23:53:33 48° E 23:53:33 48° E 23:57:48 10° NNE
Cosmos 1869 Rocket 4.5 23:53:42 36° WSW 23:54:49 43° WNW 23:59:06 10° N
